Location: Poughquag
(41.6090°N, 73.6820°W)
Time: 11:41:03
(UTC-04:00)

Transit 4A - Pass Details

Date: 04 June 2020
Orbit: 866 x 978 km, 66.8° (Epoch: 06 July)

Event Time Altitude Azimuth Distance (km) Brightness Sun altitude
Rises 02:07:06 0° 227° (SW) 3,438 - -23.6°
Reaches altitude 10° 02:09:39 10° 234° (SW) 2,508 - -23.5°
Exits shadow 02:13:04 32° 258° (WSW) 1,448 8.6 -23.3°
Maximum altitude 02:15:12 46° 307° (NW) 1,171 8.5 -23.1°
Drops below altitude 10° 02:20:53 10° 20° (NNE) 2,567 11.3 -22.8°
Sets 02:23:32 0° 26° (NNE) 3,527 12.4 -22.6°
